,,Stat5,,Stat1,,Stat2,,Stat3,,Stat4,,Wind1,,Wind1,
time,status,PA1M_AVG,status,PR1M_SUM,status,RH1M_AVG,status,SR1M_AVG,status,TA1M_AVG,status,W1dAve1m,status,W1sAve1m,
2001-12-01, 00:00:01,VALID,918.51,VALID,0,VALID,95.9896,VALID,0.101885,VALID,20.648,VALID,66,VALID,0.61899,
2001-12-01, 00:01:00,VALID,918.499,VALID,0,VALID,95.996,VALID,0.0679233,VALID,20.6017,VALID,83,VALID,0.644643,
2001-12-01, 00:02:00,VALID,918.471,VALID,0,VALID,96.1066,VALID,0.0679233,VALID,20.5737,VALID,93,VALID,0.585701,
2001-12-01, 00:03:00,VALID,918.457,VALID,0,VALID,96.2961,VALID,0.0849042,VALID,20.522,VALID,115,VALID,0.460515,
2001-12-01, 00:04:00,VALID,918.437,VALID,0,VALID,96.5135,VALID,0.0849042,VALID,20.4757,VALID,134,VALID,0.401693,
2001-12-01, 00:05:00,VALID,918.425,VALID,0,VALID,96.6954,VALID,-0.0169808,VALID,20.4582,VALID,134,VALID,0.307566,
2001-12-01, 00:06:00,VALID,918.406,VALID,0,VALID,96.8543,VALID,-0.0169808,VALID,20.4425,VALID,134,VALID,0.00760135,
2001-12-01, 00:07:00,VALID,918.393,VALID,0,VALID,96.9637,VALID,-0.0339617,VALID,20.4428,VALID,134,VALID,0,
2001-12-01, 00:08:00,VALID,918.377,VALID,0,VALID,96.9891,VALID,-0.0339617,VALID,20.4234,VALID,134,VALID,0,
2001-12-01, 00:09:00,VALID,918.366,VALID,0,VALID,97.0349,VALID,-0.0169808,VALID,20.4167,VALID,134,VALID,0,
2001-12-01, 00:10:00,VALID,918.362,VALID,0,VALID,97.0438,VALID,-0.0169808,VALID,20.3943,VALID,63,VALID,0,
2001-12-01, 00:11:00,VALID,918.384,VALID,0,VALID,96.937,VALID,-0.0169808,VALID,20.3752,VALID,39,VALID,0,
2001-12-01, 00:12:00,VALID,918.38,VALID,0,VALID,96.9904,VALID,-0.0169808,VALID,20.3491,VALID,39,VALID,0,
2001-12-01, 00:13:00,VALID,918.39,VALID,0,VALID,97.0438,VALID,-0.0169808,VALID,20.3528,VALID,39,VALID,0,
2001-12-01, 00:14:00,VALID,918.392,VALID,0,VALID,97.1188,VALID,-0.0339617,VALID,20.3526,VALID,39,VALID,0,
2001-12-01, 00:15:00,VALID,918.405,VALID,0,VALID,97.073,VALID,-0.0169808,VALID,20.3496,VALID,40,VALID,0.0487132,
2001-12-01, 00:16:00,VALID,918.4,VALID,0,VALID,97.0883,VALID,-0.0339617,VALID,20.33,VALID,143,VALID,0.620566,
2001-12-01, 00:17:00,VALID,918.409,VALID,0,VALID,97.1531,VALID,0,VALID,20.3203,VALID,156,VALID,0.576858,
2001-12-01, 00:18:00,VALID,918.408,VALID,0,VALID,97.1862,VALID,-0.0339617,VALID,20.3071,VALID,170,VALID,0.500633,
2001-12-01, 00:19:00,VALID,918.413,VALID,0,VALID,97.3731,VALID,0,VALID,20.3068,VALID,167,VALID,0.692274,
2001-12-01, 00:20:00,VALID,918.398,VALID,0,VALID,97.5117,VALID,-0.0169808,VALID,20.3203,VALID,168,VALID,0.397436,
2001-12-01, 00:21:00,VALID,918.395,VALID,0,VALID,97.5677,VALID,0,VALID,20.3237,VALID,168,VALID,0.287584,
2001-12-01, 00:22:00,VALID,918.405,VALID,0,VALID,97.6096,VALID,0,VALID,20.3205,VALID,168,VALID,0.502232,
2001-12-01, 00:23:00,VALID,918.379,VALID,0,VALID,97.691,VALID,0,VALID,20.3138,VALID,168,VALID,0.222245,
2001-12-01, 00:24:00,VALID,918.365,VALID,0,VALID,97.7444,VALID,-0.0169808,VALID,20.3108,VALID,166,VALID,0,
2001-12-01, 00:25:00,VALID,918.356,VALID,0,VALID,97.7838,VALID,0,VALID,20.2912,VALID,151,VALID,0,
2001-12-01, 00:26:00,VALID,918.344,VALID,0,VALID,97.8411,VALID,-0.0169808,VALID,20.2944,VALID,145,VALID,0,
2001-12-01, 00:27:00,VALID,918.354,VALID,0,VALID,97.8792,VALID,0,VALID,20.2914,VALID,147,VALID,0,
2001-12-01, 00:28:00,VALID,918.345,VALID,0,VALID,97.9148,VALID,0,VALID,20.2748,VALID,145,VALID,0,
2001-12-01, 00:29:00,VALID,918.346,VALID,0,VALID,97.9403,VALID,-0.0169808,VALID,20.2656,VALID,140,VALID,0,
2001-12-01, 00:30:00,VALID,918.337,VALID,0,VALID,97.9911,VALID,-0.0509425,VALID,20.2631,VALID,137,VALID,0,
2001-12-01, 00:31:00,VALID,918.337,VALID,0,VALID,97.9657,VALID,0.0169808,VALID,20.2266,VALID,137,VALID,0,
2001-12-01, 00:32:00,VALID,918.336,VALID,0,VALID,97.9822,VALID,-0.0169808,VALID,20.2139,VALID,134,VALID,0,
2001-12-01, 00:33:00,VALID,918.345,VALID,0,VALID,98.0369,VALID,-0.0169808,VALID,20.1781,VALID,127,VALID,0,
2001-12-01, 00:34:00,VALID,918.342,VALID,0,VALID,98.0852,VALID,-0.0169808,VALID,20.1784,VALID,125,VALID,0,
2001-12-01, 00:35:00,VALID,918.343,VALID,0,VALID,98.1335,VALID,-0.0169808,VALID,20.1652,VALID,125,VALID,0,
2001-12-01, 00:36:00,VALID,918.329,VALID,0,VALID,98.028,VALID,0,VALID,20.1396,VALID,105,VALID,0,
2001-12-01, 00:37:00,VALID,918.33,VALID,0,VALID,97.864,VALID,0,VALID,20.0556,VALID,68,VALID,0.696875,
2001-12-01, 00:38:00,VALID,918.329,VALID,0,VALID,97.9682,VALID,0,VALID,20.0327,VALID,75,VALID,0.674753,
2001-12-01, 00:39:00,VALID,918.315,VALID,0,VALID,98.0344,VALID,0,VALID,20.0133,VALID,78,VALID,0.499367,
2001-12-01, 00:40:00,VALID,918.308,VALID,0,VALID,98.028,VALID,-0.0169808,VALID,19.9912,VALID,76,VALID,0.599301,
2001-12-01, 00:41:00,VALID,918.31,VALID,0,VALID,98.07,VALID,-0.0169808,VALID,19.9654,VALID,80,VALID,0.582559,
2001-12-01, 00:42:00,VALID,918.293,VALID,0,VALID,98.248,VALID,0,VALID,19.978,VALID,90,VALID,0.579911,
2001-12-01, 00:43:00,VALID,918.294,VALID,0,VALID,98.3968,VALID,0,VALID,20.0302,VALID,99,VALID,0.438702,
2001-12-01, 00:44:00,VALID,918.272,VALID,0,VALID,98.4451,VALID,-0.0339617,VALID,20.0658,VALID,99,VALID,0.316051,
2001-12-01, 00:45:00,VALID,918.258,VALID,0,VALID,98.482,VALID,-0.0509425,VALID,20.0824,VALID,99,VALID,0,
2001-12-01, 00:46:00,VALID,918.244,VALID,0,VALID,98.5023,VALID,-0.0339617,VALID,20.1013,VALID,91,VALID,0,
2001-12-01, 00:47:00,VALID,918.217,VALID,0,VALID,98.3802,VALID,-0.0169808,VALID,20.062,VALID,90,VALID,0,
2001-12-01, 00:48:00,VALID,918.202,VALID,0,VALID,98.3001,VALID,0.0849042,VALID,20.0252,VALID,90,VALID,0,
2001-12-01, 00:49:00,VALID,918.196,VALID,0,VALID,98.2365,VALID,0.101885,VALID,19.9897,VALID,90,VALID,0,
2001-12-01, 00:50:00,VALID,918.188,VALID,0,VALID,98.2098,VALID,0.0339617,VALID,19.9611,VALID,90,VALID,0,
2001-12-01, 00:51:00,VALID,918.174,VALID,0,VALID,98.2556,VALID,0.0169808,VALID,19.9452,VALID,90,VALID,0,
2001-12-01, 00:52:00,VALID,918.164,VALID,0,VALID,98.4756,VALID,0,VALID,19.9838,VALID,90,VALID,0,
2001-12-01, 00:53:00,VALID,918.158,VALID,0,VALID,98.5265,VALID,0.0509425,VALID,20.0422,VALID,90,VALID,0,
2001-12-01, 00:54:00,VALID,918.155,VALID,0,VALID,98.4985,VALID,0,VALID,20.0481,VALID,94,VALID,0,
2001-12-01, 00:55:00,VALID,918.145,VALID,0,VALID,98.4158,VALID,0.0169808,VALID,20.0427,VALID,114,VALID,0.0972451,
2001-12-01, 00:56:00,VALID,918.137,VALID,0,VALID,98.44,VALID,0.0339617,VALID,20.0198,VALID,126,VALID,0.51647,
2001-12-01, 00:57:00,VALID,918.136,VALID,0,VALID,98.4896,VALID,0.0169808,VALID,20.0066,VALID,125,VALID,0.565848,
2001-12-01, 00:58:00,VALID,918.122,VALID,0,VALID,98.5341,VALID,0.0679233,VALID,20.023,VALID,124,VALID,0.792668,
2001-12-01, 00:59:00,VALID,918.106,VALID,0,VALID,98.5799,VALID,0.0509425,VALID,20.0357,VALID,119,VALID,0.91572,
2001-12-01, 01:00:00,VALID,918.077,VALID,0,VALID,98.6142,VALID,0.0509425,VALID,20.0489,VALID,113,VALID,0.839955,
2001-12-01, 01:01:00,VALID,918.049,VALID,0,VALID,98.6307,VALID,0.0339617,VALID,20.0586,VALID,111,VALID,0.789907,
2001-12-01, 01:02:00,VALID,918.044,VALID,0,VALID,98.604,VALID,0.0169808,VALID,20.0521,VALID,115,VALID,0.637247,
2001-12-01, 01:03:00,VALID,918.009,VALID,0,VALID,98.6167,VALID,0.0169808,VALID,20.0456,VALID,120,VALID,0.728252,
2001-12-01, 01:04:00,VALID,917.998,VALID,0,VALID,98.6358,VALID,0.0169808,VALID,20.0459,VALID,108,VALID,0.542101,
2001-12-01, 01:05:00,VALID,917.988,VALID,0,VALID,98.5799,VALID,-0.0679233,VALID,20.0143,VALID,97,VALID,0.376202,
2001-12-01, 01:06:00,VALID,917.975,VALID,0,VALID,98.5659,VALID,-0.0849042,VALID,19.9858,VALID,58,VALID,0.518159,
2001-12-01, 01:07:00,VALID,917.962,VALID,0,VALID,98.4947,VALID,-0.101885,VALID,19.947,VALID,52,VALID,0.54308,
2001-12-01, 01:08:00,VALID,917.965,VALID,0,VALID,98.4858,VALID,-0.101885,VALID,19.9149,VALID,62,VALID,0.492804,
2001-12-01, 01:09:00,VALID,917.944,VALID,0,VALID,98.5087,VALID,-0.0849042,VALID,19.912,VALID,73,VALID,0.658995,
2001-12-01, 01:10:00,VALID,917.932,VALID,0,VALID,98.5265,VALID,-0.101885,VALID,19.9052,VALID,82,VALID,0.190378,
2001-12-01, 01:11:00,VALID,917.92,VALID,0,VALID,98.5519,VALID,-0.101885,VALID,19.9085,VALID,83,VALID,0.183277,
2001-12-01, 01:12:00,VALID,917.925,VALID,0,VALID,98.5392,VALID,-0.101885,VALID,19.8956,VALID,83,VALID,0.0553571,
2001-12-01, 01:13:00,VALID,917.895,VALID,0,VALID,98.5137,VALID,-0.0849042,VALID,19.8757,VALID,83,VALID,0.317708,
2001-12-01, 01:14:00,VALID,917.88,VALID,0,VALID,98.4998,VALID,-0.0679233,VALID,19.8794,VALID,88,VALID,0.368134,
2001-12-01, 01:15:00,VALID,917.862,VALID,0,VALID,98.571,VALID,-0.0679233,VALID,19.8956,VALID,99,VALID,0.304458,
2001-12-01, 01:16:00,VALID,917.854,VALID,0,VALID,98.6053,VALID,-0.0509425,VALID,19.9085,VALID,99,VALID,0.051098,
2001-12-01, 01:17:00,VALID,917.838,VALID,0,VALID,98.6307,VALID,-0.0509425,VALID,19.9211,VALID,99,VALID,0.323269,
2001-12-01, 01:18:00,VALID,917.822,VALID,0,VALID,98.618,VALID,-0.0679233,VALID,19.9306,VALID,99,VALID,0.192145,
2001-12-01, 01:19:00,VALID,917.802,VALID,0,VALID,98.6473,VALID,-0.101885,VALID,19.9505,VALID,67,VALID,0.31684,
2001-12-01, 01:20:00,VALID,917.765,VALID,0,VALID,98.5964,VALID,-0.0679233,VALID,19.9306,VALID,49,VALID,0.171074,
2001-12-01, 01:21:00,VALID,917.758,VALID,0,VALID,98.5544,VALID,-0.0679233,VALID,19.8985,VALID,49,VALID,0,
2001-12-01, 01:22:00,VALID,917.757,VALID,0,VALID,98.5366,VALID,-0.0849042,VALID,19.8923,VALID,49,VALID,0,
2001-12-01, 01:23:00,VALID,917.752,VALID,0,VALID,98.4934,VALID,-0.0849042,VALID,19.8662,VALID,49,VALID,0,
2001-12-01, 01:24:00,VALID,917.741,VALID,0,VALID,98.4883,VALID,-0.101885,VALID,19.867,VALID,49,VALID,0,
2001-12-01, 01:25:00,VALID,917.747,VALID,0,VALID,98.4947,VALID,-0.101885,VALID,19.8573,VALID,49,VALID,0,
2001-12-01, 01:26:00,VALID,917.737,VALID,0,VALID,98.5303,VALID,-0.101885,VALID,19.8732,VALID,49,VALID,0,
2001-12-01, 01:27:00,VALID,917.744,VALID,0,VALID,98.5544,VALID,-0.101885,VALID,19.8891,VALID,49,VALID,0,
2001-12-01, 01:28:00,VALID,917.746,VALID,0,VALID,98.571,VALID,-0.101885,VALID,19.8988,VALID,49,VALID,0,
2001-12-01, 01:29:00,VALID,917.734,VALID,0,VALID,98.5481,VALID,-0.101885,VALID,19.9052,VALID,49,VALID,0,
2001-12-01, 01:30:00,VALID,917.726,VALID,0,VALID,98.4858,VALID,-0.101885,VALID,19.8995,VALID,49,VALID,0,
2001-12-01, 01:31:00,VALID,917.705,VALID,0,VALID,98.4692,VALID,-0.0849042,VALID,19.867,VALID,49,VALID,0,
2001-12-01, 01:32:00,VALID,917.686,VALID,0,VALID,98.3942,VALID,-0.101885,VALID,19.8379,VALID,49,VALID,0,
2001-12-01, 01:33:00,VALID,917.676,VALID,0,VALID,98.3167,VALID,-0.0849042,VALID,19.7825,VALID,49,VALID,0,
2001-12-01, 01:34:00,VALID,917.665,VALID,0,VALID,98.2721,VALID,-0.101885,VALID,19.7338,VALID,49,VALID,0,
2001-12-01, 01:35:00,VALID,917.635,VALID,0,VALID,98.2404,VALID,0.0169808,VALID,19.7007,VALID,49,VALID,0,
2001-12-01, 01:36:00,VALID,917.627,VALID,0,VALID,98.2632,VALID,0.0169808,VALID,19.6875,VALID,49,VALID,0,
2001-12-01, 01:37:00,VALID,917.605,VALID,0,VALID,98.2798,VALID,0,VALID,19.6749,VALID,49,VALID,0,
2001-12-01, 01:38:00,VALID,917.586,VALID,0,VALID,98.3128,VALID,0,VALID,19.6741,VALID,49,VALID,0,
2001-12-01, 01:39:00,VALID,917.578,VALID,0,VALID,98.3077,VALID,0,VALID,19.6612,VALID,49,VALID,0,
2001-12-01, 01:40:00,VALID,917.572,VALID,0,VALID,98.2836,VALID,0.0169808,VALID,19.6515,VALID,49,VALID,0,
2001-12-01, 01:41:00,VALID,917.573,VALID,0,VALID,98.3154,VALID,0,VALID,19.6518,VALID,49,VALID,0,
2001-12-01, 01:42:00,VALID,917.568,VALID,0,VALID,98.3701,VALID,0.0169808,VALID,19.6485,VALID,49,VALID,0,
2001-12-01, 01:43:00,VALID,917.571,VALID,0,VALID,98.4018,VALID,0.0339617,VALID,19.6547,VALID,342,VALID,0.191306,
2001-12-01, 01:44:00,VALID,917.568,VALID,0,VALID,98.5023,VALID,0.0509425,VALID,19.6806,VALID,252,VALID,0.142519,
2001-12-01, 01:45:00,VALID,917.562,VALID,0,VALID,98.5468,VALID,0.0339617,VALID,19.7094,VALID,252,VALID,0.000459559,
2001-12-01, 01:46:00,VALID,917.539,VALID,0,VALID,98.5137,VALID,0,VALID,19.7064,VALID,17,VALID,0.322424,
2001-12-01, 01:47:00,VALID,917.536,VALID,0,VALID,98.44,VALID,0.0169808,VALID,19.6679,VALID,29,VALID,0.316934,
2001-12-01, 01:48:00,VALID,917.531,VALID,0,VALID,98.4108,VALID,0,VALID,19.6227,VALID,31,VALID,0.0618666,
2001-12-01, 01:49:00,VALID,917.517,VALID,0,VALID,98.44,VALID,0,VALID,19.6033,VALID,31,VALID,0,
2001-12-01, 01:50:00,VALID,917.519,VALID,0,VALID,98.4883,VALID,-0.0169808,VALID,19.6001,VALID,30,VALID,0,
2001-12-01, 01:51:00,VALID,917.517,VALID,0,VALID,98.5227,VALID,0,VALID,19.6068,VALID,30,VALID,0,
2001-12-01, 01:52:00,VALID,917.497,VALID,0,VALID,98.5646,VALID,0,VALID,19.6132,VALID,30,VALID,0,
2001-12-01, 01:53:00,VALID,917.499,VALID,0,VALID,98.6218,VALID,-0.0169808,VALID,19.6294,VALID,30,VALID,0,
2001-12-01, 01:54:00,VALID,917.503,VALID,0,VALID,98.6714,VALID,-0.0169808,VALID,19.6523,VALID,30,VALID,0,
2001-12-01, 01:55:00,VALID,917.495,VALID,0,VALID,98.6778,VALID,0,VALID,19.6781,VALID,30,VALID,0,
2001-12-01, 01:56:00,VALID,917.477,VALID,0,VALID,98.6269,VALID,0,VALID,19.659,VALID,30,VALID,0,
2001-12-01, 01:57:00,VALID,917.473,VALID,0,VALID,98.5595,VALID,0,VALID,19.6264,VALID,31,VALID,0,
2001-12-01, 01:58:00,VALID,917.469,VALID,0,VALID,98.543,VALID,-0.0169808,VALID,19.5809,VALID,38,VALID,0,
2001-12-01, 01:59:00,VALID,917.448,VALID,0,VALID,98.557,VALID,0.0169808,VALID,19.5623,VALID,48,VALID,0,
2001-12-01, 02:00:00,VALID,917.436,VALID,0,VALID,98.5595,VALID,-0.0169808,VALID,19.5362,VALID,48,VALID,0,
2001-12-01, 02:01:00,VALID,917.422,VALID,0,VALID,98.557,VALID,-0.0169808,VALID,19.5268,VALID,49,VALID,0,
2001-12-01, 02:02:00,VALID,917.411,VALID,0,VALID,98.5277,VALID,-0.0169808,VALID,19.5138,VALID,50,VALID,0,
2001-12-01, 02:03:00,VALID,917.389,VALID,0,VALID,98.4514,VALID,-0.0169808,VALID,19.4622,VALID,50,VALID,0,
2001-12-01, 02:04:00,VALID,917.37,VALID,0,VALID,98.2976,VALID,-0.0169808,VALID,19.3879,VALID,50,VALID,0,
2001-12-01, 02:05:00,VALID,917.354,VALID,0,VALID,98.2556,VALID,0,VALID,19.3136,VALID,50,VALID,0,
2001-12-01, 02:06:00,VALID,917.335,VALID,0,VALID,98.2696,VALID,0,VALID,19.2843,VALID,50,VALID,0,
2001-12-01, 02:07:00,VALID,917.331,VALID,0,VALID,98.3256,VALID,0,VALID,19.2646,VALID,50,VALID,0,
2001-12-01, 02:08:00,VALID,917.329,VALID,0,VALID,98.3777,VALID,0,VALID,19.2716,VALID,50,VALID,0,
2001-12-01, 02:09:00,VALID,917.328,VALID,0,VALID,98.3586,VALID,0,VALID,19.275,VALID,50,VALID,0,
2001-12-01, 02:10:00,VALID,917.319,VALID,0,VALID,98.3179,VALID,0,VALID,19.2517,VALID,50,VALID,0,
2001-12-01, 02:11:00,VALID,917.319,VALID,0,VALID,98.1946,VALID,0,VALID,19.2075,VALID,50,VALID,0,
2001-12-01, 02:12:00,VALID,917.329,VALID,0,VALID,98.2213,VALID,-0.0339617,VALID,19.1816,VALID,50,VALID,0,
2001-12-01, 02:13:00,VALID,917.325,VALID,0,VALID,98.4324,VALID,0,VALID,19.2102,VALID,55,VALID,0,
2001-12-01, 02:14:00,VALID,917.323,VALID,0,VALID,98.5913,VALID,-0.0169808,VALID,19.2619,VALID,68,VALID,0,
2001-12-01, 02:15:00,VALID,917.295,VALID,0,VALID,98.6473,VALID,0,VALID,19.3138,VALID,71,VALID,0,
2001-12-01, 02:16:00,VALID,917.286,VALID,0,VALID,98.6536,VALID,0,VALID,19.3297,VALID,69,VALID,0,
2001-12-01, 02:17:00,VALID,917.279,VALID,0,VALID,98.5761,VALID,-0.0169808,VALID,19.3237,VALID,56,VALID,0,
2001-12-01, 02:18:00,VALID,917.245,VALID,0,VALID,98.4845,VALID,-0.0169808,VALID,19.2947,VALID,56,VALID,0,
2001-12-01, 02:19:00,VALID,917.223,VALID,0,VALID,98.3891,VALID,0,VALID,19.2231,VALID,56,VALID,0,
2001-12-01, 02:20:00,VALID,917.213,VALID,0,VALID,98.4616,VALID,-0.0169808,VALID,19.2072,VALID,56,VALID,0,
2001-12-01, 02:21:00,VALID,917.206,VALID,0,VALID,98.7566,VALID,0,VALID,19.2721,VALID,83,VALID,0,
2001-12-01, 02:22:00,VALID,917.206,VALID,0,VALID,98.7007,VALID,-0.0169808,VALID,19.327,VALID,108,VALID,0.37433,
2001-12-01, 02:23:00,VALID,917.194,VALID,0,VALID,98.5735,VALID,-0.0169808,VALID,19.2912,VALID,119,VALID,0.639597,
2001-12-01, 02:24:00,VALID,917.163,VALID,0,VALID,98.6994,VALID,0,VALID,19.288,VALID,110,VALID,0.78484,
2001-12-01, 02:25:00,VALID,917.146,VALID,0,VALID,98.763,VALID,0,VALID,19.327,VALID,94,VALID,0.631373,
2001-12-01, 02:26:00,VALID,917.121,VALID,0,VALID,98.7414,VALID,0,VALID,19.3302,VALID,90,VALID,0.772804,
2001-12-01, 02:27:00,VALID,917.109,VALID,0,VALID,98.7236,VALID,-0.0339617,VALID,19.3141,VALID,90,VALID,0.660714,
2001-12-01, 02:28:00,VALID,917.086,VALID,0,VALID,98.6816,VALID,-0.0339617,VALID,19.2847,VALID,89,VALID,0.558494,
2001-12-01, 02:29:00,VALID,917.081,VALID,0,VALID,98.6422,VALID,0,VALID,19.243,VALID,89,VALID,0.407434,
2001-12-01, 02:30:00,VALID,917.08,VALID,0,VALID,98.6778,VALID,0,VALID,19.2139,VALID,89,VALID,0.375,
2001-12-01, 02:31:00,VALID,917.068,VALID,0,VALID,98.6803,VALID,0.0339617,VALID,19.1876,VALID,89,VALID,0.41174,
2001-12-01, 02:32:00,VALID,917.054,VALID,0,VALID,98.81,VALID,0,VALID,19.1908,VALID,97,VALID,0.668074,
2001-12-01, 02:33:00,VALID,917.043,VALID,0,VALID,98.8558,VALID,0,VALID,19.2238,VALID,126,VALID,0.784206,
2001-12-01, 02:34:00,VALID,917.024,VALID,0,VALID,98.8774,VALID,0,VALID,19.2231,VALID,130,VALID,0.840929,
2001-12-01, 02:35:00,VALID,917.003,VALID,0,VALID,98.8787,VALID,0.0169808,VALID,19.2333,VALID,130,VALID,0.672676,
2001-12-01, 02:36:00,VALID,916.983,VALID,0,VALID,98.9054,VALID,0,VALID,19.2395,VALID,121,VALID,0.476774,
2001-12-01, 02:37:00,VALID,916.957,VALID,0,VALID,98.9156,VALID,0.0339617,VALID,19.2296,VALID,120,VALID,0.826563,
2001-12-01, 02:38:00,VALID,916.947,VALID,0,VALID,98.9715,VALID,0.0169808,VALID,19.2462,VALID,111,VALID,0.909128,
2001-12-01, 02:39:00,VALID,916.93,VALID,0,VALID,99.0109,VALID,0.0509425,VALID,19.2748,VALID,114,VALID,0.903083,
2001-12-01, 02:40:00,VALID,916.925,VALID,0,VALID,99.0211,VALID,0,VALID,19.2882,VALID,113,VALID,0.908512,
2001-12-01, 02:41:00,VALID,916.911,VALID,0,VALID,99.0237,VALID,0.0169808,VALID,19.291,VALID,103,VALID,0.526182,
2001-12-01, 02:42:00,VALID,916.916,VALID,0,VALID,99.0262,VALID,0,VALID,19.2815,VALID,98,VALID,0.563839,
2001-12-01, 02:43:00,VALID,916.892,VALID,0,VALID,99.0326,VALID,0,VALID,19.2914,VALID,92,VALID,0.924479,
2001-12-01, 02:44:00,VALID,916.894,VALID,0,VALID,99.0618,VALID,0.0169808,VALID,19.2882,VALID,109,VALID,1.27391,
2001-12-01, 02:45:00,VALID,916.876,VALID,0,VALID,99.0618,VALID,0.0339617,VALID,19.3071,VALID,117,VALID,1.25345,
2001-12-01, 02:46:00,VALID,916.856,VALID,0,VALID,99.0758,VALID,0.0339617,VALID,19.3006,VALID,124,VALID,0.897171,
2001-12-01, 02:47:00,VALID,916.842,VALID,0,VALID,99.0936,VALID,0.0339617,VALID,19.2974,VALID,131,VALID,0.95038,
2001-12-01, 02:48:00,VALID,916.856,VALID,0,VALID,99.1178,VALID,0.0509425,VALID,19.3233,VALID,142,VALID,0.917019,
2001-12-01, 02:49:00,VALID,916.86,VALID,0,VALID,99.1063,VALID,0.0339617,VALID,19.3267,VALID,126,VALID,0.896701,
2001-12-01, 02:50:00,VALID,916.855,VALID,0,VALID,99.1165,VALID,0.0339617,VALID,19.3203,VALID,116,VALID,0.825721,
2001-12-01, 02:51:00,VALID,916.846,VALID,0,VALID,99.1,VALID,0.0339617,VALID,19.3069,VALID,134,VALID,0.673986,
2001-12-01, 02:52:00,VALID,916.848,VALID,0,VALID,99.1127,VALID,0.0339617,VALID,19.2939,VALID,140,VALID,0.933482,
2001-12-01, 02:53:00,VALID,916.85,VALID,0,VALID,99.1292,VALID,0.0169808,VALID,19.2937,VALID,114,VALID,0.715461,
2001-12-01, 02:54:00,VALID,916.841,VALID,0,VALID,99.1254,VALID,0.0339617,VALID,19.2972,VALID,127,VALID,0.569679,
2001-12-01, 02:55:00,VALID,916.838,VALID,0,VALID,99.1165,VALID,0.0509425,VALID,19.2778,VALID,119,VALID,0.527755,
2001-12-01, 02:56:00,VALID,916.827,VALID,0,VALID,99.133,VALID,0,VALID,19.2748,VALID,126,VALID,0.823691,
2001-12-01, 02:57:00,VALID,916.803,VALID,0,VALID,99.1356,VALID,0.0509425,VALID,19.278,VALID,134,VALID,0.73125,
2001-12-01, 02:58:00,VALID,916.806,VALID,0,VALID,99.1406,VALID,0,VALID,19.2688,VALID,120,VALID,0.668069,
2001-12-01, 02:59:00,VALID,916.778,VALID,0,VALID,99.1432,VALID,0.0509425,VALID,19.2529,VALID,128,VALID,0.504261,
2001-12-01, 03:00:00,VALID,916.775,VALID,0,VALID,99.1534,VALID,0.0509425,VALID,19.2621,VALID,110,VALID,0.0117188,
2001-12-01, 03:01:00,VALID,916.776,VALID,0,VALID,99.1496,VALID,0.0339617,VALID,19.2395,VALID,135,VALID,0.752323,
2001-12-01, 03:02:00,VALID,916.764,VALID,0,VALID,99.1648,VALID,0.0169808,VALID,19.236,VALID,150,VALID,0.68201,
2001-12-01, 03:03:00,VALID,916.756,VALID,0,VALID,99.1775,VALID,0.0169808,VALID,19.2423,VALID,137,VALID,0.611909,
2001-12-01, 03:04:00,VALID,916.748,VALID,0,VALID,99.1915,VALID,0.0339617,VALID,19.242,VALID,141,VALID,0.666233,
2001-12-01, 03:05:00,VALID,916.725,VALID,0,VALID,99.1991,VALID,-0.0849042,VALID,19.2562,VALID,145,VALID,0.755609,
2001-12-01, 03:06:00,VALID,916.711,VALID,0,VALID,99.1915,VALID,-0.0679233,VALID,19.244,VALID,136,VALID,0.392103,
2001-12-01, 03:07:00,VALID,916.681,VALID,0,VALID,99.1928,VALID,-0.0339617,VALID,19.2407,VALID,99,VALID,0.632813,
2001-12-01, 03:08:00,VALID,916.653,VALID,0,VALID,99.1902,VALID,-0.0339617,VALID,19.2176,VALID,95,VALID,0.635691,
2001-12-01, 03:09:00,VALID,916.647,VALID,0,VALID,99.2106,VALID,-0.0849042,VALID,19.2181,VALID,110,VALID,0.659417,
2001-12-01, 03:10:00,VALID,916.641,VALID,0,VALID,99.2144,VALID,-0.0339617,VALID,19.2107,VALID,118,VALID,0.591694,
2001-12-01, 03:11:00,VALID,916.636,VALID,0,VALID,99.2157,VALID,-0.0169808,VALID,19.2179,VALID,119,VALID,0.634079,
2001-12-01, 03:12:00,VALID,916.635,VALID,0,VALID,99.2131,VALID,-0.0339617,VALID,19.2079,VALID,115,VALID,0.685714,
2001-12-01, 03:13:00,VALID,916.631,VALID,0,VALID,99.2068,VALID,-0.101885,VALID,19.1858,VALID,117,VALID,0.360978,
2001-12-01, 03:14:00,VALID,916.623,VALID,0,VALID,99.1877,VALID,-0.0339617,VALID,19.1694,VALID,118,VALID,0.459044,
2001-12-01, 03:15:00,VALID,916.618,VALID,0,VALID,99.1864,VALID,-0.0339617,VALID,19.15,VALID,108,VALID,0.630974,
2001-12-01, 03:16:00,VALID,916.592,VALID,0,VALID,99.2004,VALID,-0.0339617,VALID,19.1403,VALID,96,VALID,0.721495,
2001-12-01, 03:17:00,VALID,916.565,VALID,0,VALID,99.1953,VALID,-0.0849042,VALID,19.1212,VALID,91,VALID,0.701436,
2001-12-01, 03:18:00,VALID,916.549,VALID,0,VALID,99.189,VALID,-0.101885,VALID,19.1185,VALID,102,VALID,0.560389,
2001-12-01, 03:19:00,VALID,916.537,VALID,0,VALID,99.1585,VALID,-0.0849042,VALID,19.0797,VALID,129,VALID,0.584418,
2001-12-01, 03:20:00,VALID,916.525,VALID,0,VALID,99.1623,VALID,-0.0849042,VALID,19.0442,VALID,139,VALID,0.330729,
2001-12-01, 03:21:00,VALID,916.535,VALID,0,VALID,99.1852,VALID,-0.118866,VALID,19.0409,VALID,124,VALID,0.388514,
2001-12-01, 03:22:00,VALID,916.525,VALID,0,VALID,99.2106,VALID,-0.118866,VALID,19.0506,VALID,112,VALID,0.405357,
2001-12-01, 03:23:00,VALID,916.522,VALID,0,VALID,99.1864,VALID,-0.101885,VALID,19.0342,VALID,97,VALID,0.340872,
2001-12-01, 03:24:00,VALID,916.519,VALID,0,VALID,99.1368,VALID,-0.101885,VALID,18.9731,VALID,65,VALID,0.603041,
2001-12-01, 03:25:00,VALID,916.495,VALID,0,VALID,99.1165,VALID,-0.101885,VALID,18.912,VALID,58,VALID,0.579153,
2001-12-01, 03:26:00,VALID,916.491,VALID,0,VALID,99.133,VALID,-0.101885,VALID,18.8926,VALID,70,VALID,0.786801,
2001-12-01, 03:27:00,VALID,916.477,VALID,0,VALID,99.1432,VALID,-0.0849042,VALID,18.896,VALID,68,VALID,0.906473,
2001-12-01, 03:28:00,VALID,916.473,VALID,0,VALID,99.1572,VALID,-0.0679233,VALID,18.8757,VALID,67,VALID,0.98738,
2001-12-01, 03:29:00,VALID,916.463,VALID,0,VALID,99.189,VALID,-0.0849042,VALID,18.8859,VALID,77,VALID,1.00355,
2001-12-01, 03:30:00,VALID,916.465,VALID,0,VALID,99.2119,VALID,-0.101885,VALID,18.8923,VALID,85,VALID,0.784467,
2001-12-01, 03:31:00,VALID,916.479,VALID,0,VALID,99.236,VALID,-0.0679233,VALID,18.9083,VALID,106,VALID,0.740287,
2001-12-01, 03:32:00,VALID,916.485,VALID,0,VALID,99.264,VALID,-0.0679233,VALID,18.9311,VALID,124,VALID,0.712416,
2001-12-01, 03:33:00,VALID,916.501,VALID,0,VALID,99.2971,VALID,-0.0849042,VALID,18.9761,VALID,135,VALID,0.79772,
2001-12-01, 03:34:00,VALID,916.506,VALID,0,VALID,99.2869,VALID,-0.0849042,VALID,19.0151,VALID,131,VALID,0.705729,
2001-12-01, 03:35:00,VALID,916.503,VALID,0,VALID,99.2716,VALID,-0.0169808,VALID,19.004,VALID,130,VALID,0.290465,
2001-12-01, 03:36:00,VALID,916.504,VALID,0,VALID,99.2309,VALID,0,VALID,18.9682,VALID,102,VALID,0.236064,
2001-12-01, 03:37:00,VALID,916.495,VALID,0,VALID,99.1534,VALID,0,VALID,18.8646,VALID,65,VALID,0.142634,
2001-12-01, 03:38:00,VALID,916.486,VALID,0,VALID,99.119,VALID,0,VALID,18.7975,VALID,40,VALID,0.393709,